• In Belarus
  • List of Countries
  • For 7 days
  • Water Temperature
  • Satellite Maps
  • Weather Map
  • Weather Widgets
  • user-avatar
    Login

    Hourly Weather Sinegubovo 1

    Today, 22 April, Monday

    Time Temperature Precipitation Wind Pressure Humidity
    00:00 +8°C° 0 mm 0 mps 748 mmHg 43%
    01:00 +7°C° 0 mm 0 mps 748 mmHg 45%
    02:00 +6°C° 0 mm 0 mps 748 mmHg 44%
    03:00 +7°C° 0 mm 1 mps 748 mmHg 46%
    04:00 +7°C° 0 mm 1 mps 748 mmHg 49%
    05:00 +7°C° 0 mm 1 mps 748 mmHg 51%
    06:00 +9°C° 0 mm 1 mps 749 mmHg 48%
    07:00 +11°C° 0 mm 1 mps 749 mmHg 45%
    08:00 +13°C° 0 mm 2 mps 749 mmHg 42%
    09:00 +14°C° 0 mm 2 mps 749 mmHg 37%
    10:00 +16°C° 0 mm 2 mps 749 mmHg 33%
    11:00 +17°C° 0 mm 2 mps 749 mmHg 29%
    12:00 +17°C° 0 mm 2 mps 749 mmHg 29%
    13:00 +17°C° 0 mm 2 mps 749 mmHg 29%
    14:00 +17°C° 0 mm 2 mps 749 mmHg 28%
    15:00 +17°C° 0 mm 2 mps 749 mmHg 31%
    16:00 +17°C° 0 mm 2 mps 749 mmHg 34%
    17:00 +16°C° 0 mm 2 mps 749 mmHg 38%
    18:00 +15°C° 0 mm 2 mps 749 mmHg 40%
    19:00 +14°C° 0 mm 2 mps 749 mmHg 42%
    20:00 +13°C° 0 mm 1 mps 749 mmHg 45%
    21:00 +13°C° 0 mm 1 mps 749 mmHg 46%
    22:00 +12°C° 0 mm 1 mps 749 mmHg 47%
    23:00 +11°C° 0 mm 0 mps 750 mmHg 48%

    Tomorrow, 23 April, Tuesday

    Time Temperature Precipitation Wind Pressure Humidity
    00:00 +11°C° 0 mm 0 mps 750 mmHg 48%
    01:00 +10°C° 0 mm 0 mps 750 mmHg 49%
    02:00 +11°C° 0 mm 1 mps 750 mmHg 49%
    03:00 +11°C° 0 mm 1 mps 750 mmHg 51%
    04:00 +11°C° 0 mm 1 mps 750 mmHg 53%
    05:00 +11°C° 0 mm 1 mps 750 mmHg 54%
    06:00 +12°C° 0 mm 2 mps 750 mmHg 52%
    07:00 +13°C° 0 mm 2 mps 750 mmHg 50%
    08:00 +14°C° 0 mm 2 mps 751 mmHg 47%
    09:00 +15°C° 0 mm 2 mps 751 mmHg 43%
    10:00 +16°C° 0 mm 3 mps 751 mmHg 39%
    11:00 +17°C° 0 mm 3 mps 751 mmHg 34%
    12:00 +17°C° 0 mm 3 mps 750 mmHg 35%
    13:00 +18°C° 0 mm 3 mps 750 mmHg 35%
    14:00 +18°C° 0 mm 3 mps 750 mmHg 35%
    15:00 +18°C° 0 mm 3 mps 750 mmHg 38%
    16:00 +18°C° 0 mm 3 mps 749 mmHg 41%
    17:00 +17°C° 0 mm 3 mps 749 mmHg 44%
    18:00 +16°C° 0 mm 3 mps 749 mmHg 48%
    19:00 +13°C° 0 mm 3 mps 749 mmHg 53%
    20:00 +13°C° 0 mm 2 mps 749 mmHg 58%
    21:00 +12°C° 0 mm 2 mps 749 mmHg 59%
    22:00 +12°C° 0 mm 2 mps 750 mmHg 60%
    23:00 +12°C° 0 mm 2 mps 750 mmHg 61%

    Day after tomorrow, 24 April, Wednesday

    Time Temperature Precipitation Wind Pressure Humidity
    00:00 +12°C° 0 mm 2 mps 750 mmHg 61%
    01:00 +12°C° 0 mm 2 mps 750 mmHg 61%
    02:00 +12°C° 0 mm 2 mps 750 mmHg 62%
    03:00 +10°C° 0 mm 2 mps 750 mmHg 64%
    04:00 +10°C° 0 mm 2 mps 750 mmHg 67%
    05:00 +9°C° 0 mm 3 mps 750 mmHg 69%
    06:00 +11°C° 0 mm 3 mps 750 mmHg 65%
    07:00 +12°C° 0 mm 3 mps 750 mmHg 61%
    08:00 +14°C° 0 mm 3 mps 750 mmHg 57%
    09:00 +16°C° 0 mm 3 mps 750 mmHg 52%
    10:00 +18°C° 0 mm 4 mps 750 mmHg 47%
    11:00 +19°C° 0 mm 4 mps 750 mmHg 42%
    12:00 +20°C° 0 mm 4 mps 750 mmHg 41%
    13:00 +20°C° 0 mm 4 mps 749 mmHg 40%
    14:00 +21°C° 0 mm 4 mps 749 mmHg 39%
    15:00 +20°C° 0 mm 4 mps 749 mmHg 41%
    16:00 +20°C° 0 mm 3 mps 749 mmHg 44%
    17:00 +20°C° 0 mm 3 mps 749 mmHg 46%
    18:00 +18°C° 0 mm 3 mps 749 mmHg 51%
    19:00 +16°C° 0 mm 2 mps 749 mmHg 55%
    20:00 +15°C° 0 mm 2 mps 749 mmHg 60%
    21:00 +14°C° 0 mm 2 mps 749 mmHg 61%
    22:00 +14°C° 0 mm 2 mps 749 mmHg 63%
    23:00 +13°C° 0 mm 2 mps 749 mmHg 65%

    25 April, Thursday

    Time Temperature Precipitation Wind Pressure Humidity
    00:00 +12°C° 0 mm 2 mps 749 mmHg 66%
    01:00 +12°C° 0 mm 2 mps 749 mmHg 67%
    02:00 +12°C° 0 mm 2 mps 749 mmHg 69%
    03:00 +10°C° 0 mm 2 mps 749 mmHg 70%
    04:00 +10°C° 0 mm 2 mps 749 mmHg 72%
    05:00 +10°C° 0 mm 2 mps 749 mmHg 73%
    06:00 +13°C° 0 mm 2 mps 749 mmHg 67%
    07:00 +15°C° 0 mm 2 mps 750 mmHg 61%
    08:00 +16°C° 0 mm 2 mps 750 mmHg 55%
    09:00 +18°C° 0 mm 2 mps 750 mmHg 50%
    10:00 +19°C° 0 mm 2 mps 749 mmHg 45%
    11:00 +21°C° 0 mm 3 mps 749 mmHg 41%
    12:00 +21°C° 0 mm 2 mps 749 mmHg 39%
    13:00 +23°C° 0 mm 2 mps 749 mmHg 38%
    14:00 +23°C° 0 mm 2 mps 749 mmHg 37%
    15:00 +23°C° 0 mm 2 mps 748 mmHg 39%
    16:00 +23°C° 0 mm 2 mps 748 mmHg 41%
    17:00 +22°C° 0 mm 1 mps 748 mmHg 43%
    18:00 +21°C° 0 mm 1 mps 748 mmHg 47%
    19:00 +19°C° 0 mm 1 mps 748 mmHg 51%
    20:00 +16°C° 0 mm 1 mps 747 mmHg 54%
    21:00 +16°C° 0 mm 1 mps 747 mmHg 55%
    22:00 +15°C° 0 mm 0 mps 747 mmHg 56%
    23:00 +14°C° 0 mm 0 mps 747 mmHg 57%

    26 April, Friday

    Time Temperature Precipitation Wind Pressure Humidity
    00:00 +14°C° 0 mm 0 mps 747 mmHg 57%
    01:00 +14°C° 0 mm 0 mps 747 mmHg 57%
    02:00 +14°C° 0 mm 0 mps 747 mmHg 57%
    03:00 +14°C° 0 mm 0 mps 747 mmHg 58%
    04:00 +14°C° 0 mm 0 mps 747 mmHg 59%
    05:00 +14°C° 0 mm 0 mps 747 mmHg 61%
    06:00 +16°C° 0 mm 1 mps 747 mmHg 59%
    07:00 +18°C° 0 mm 1 mps 747 mmHg 57%
    08:00 +19°C° 0 mm 1 mps 747 mmHg 54%
    09:00 +19°C° 0 mm 1 mps 747 mmHg 54%
    10:00 +20°C° 0 mm 1 mps 747 mmHg 54%
    11:00 +19°C° 0 mm 2 mps 747 mmHg 53%
    12:00 +21°C° 0 mm 1 mps 747 mmHg 51%
    13:00 +21°C° 0 mm 1 mps 746 mmHg 49%
    14:00 +22°C° 0 mm 1 mps 746 mmHg 47%
    15:00 +20°C° 0.9 mm 2 mps 746 mmHg 51%
    16:00 +19°C° 0.9 mm 2 mps 745 mmHg 56%
    17:00 +18°C° 0.9 mm 2 mps 745 mmHg 61%
    18:00 +18°C° 0.1 mm 1 mps 745 mmHg 64%
    19:00 +16°C° 0.1 mm 1 mps 745 mmHg 68%
    20:00 +14°C° 0.1 mm 0 mps 745 mmHg 71%
    21:00 +13°C° 0.2 mm 0 mps 745 mmHg 73%
    22:00 +13°C° 0.2 mm 0 mps 745 mmHg 75%
    23:00 +12°C° 0.2 mm 0 mps 744 mmHg 77%

    27 April, Saturday

    Time Temperature Precipitation Wind Pressure Humidity
    00:00 +13°C° 0.6 mm 1 mps 744 mmHg 80%
    01:00 +12°C° 0.6 mm 1 mps 744 mmHg 82%
    02:00 +12°C° 0.6 mm 1 mps 744 mmHg 85%
    03:00 +12°C° 0.4 mm 1 mps 744 mmHg 85%
    04:00 +12°C° 0.4 mm 1 mps 744 mmHg 86%
    05:00 +12°C° 0.4 mm 1 mps 744 mmHg 86%
    06:00 +13°C° 0.2 mm 1 mps 744 mmHg 79%
    07:00 +15°C° 0.2 mm 2 mps 744 mmHg 73%
    08:00 +17°C° 0.2 mm 2 mps 744 mmHg 67%
    09:00 +18°C° 0.2 mm 2 mps 743 mmHg 60%
    10:00 +19°C° 0.2 mm 3 mps 743 mmHg 54%
    11:00 +20°C° 0.2 mm 4 mps 743 mmHg 48%
    12:00 +20°C° 0 mm 4 mps 743 mmHg 48%
    13:00 +20°C° 0 mm 4 mps 743 mmHg 49%
    14:00 +20°C° 0 mm 4 mps 742 mmHg 49%
    15:00 +20°C° 0 mm 3 mps 742 mmHg 52%
    16:00 +20°C° 0 mm 3 mps 742 mmHg 55%
    17:00 +19°C° 0 mm 2 mps 742 mmHg 58%
    18:00 +18°C° 0 mm 2 mps 742 mmHg 61%
    19:00 +17°C° 0 mm 3 mps 742 mmHg 64%
    20:00 +16°C° 0 mm 3 mps 741 mmHg 67%
    21:00 +14°C° 0.7 mm 3 mps 741 mmHg 73%
    22:00 +13°C° 0.7 mm 3 mps 741 mmHg 79%
    23:00 +12°C° 0.7 mm 3 mps 741 mmHg 84%
    Show more